User: anonymous   Login
Location: Newark
(37.8444°N, 127.0614°E)
Time: 10:47:22
(UTC+00:00)
Language:

DX 1 - Orbit

View from above orbital plane
View from above orbital plane
View from above satellite
View from above satellite

Ground track
Ground track

The orbit data is extracted from the following two-line orbital elements,

1 40071U 14037C   20028.88479671  .00000042  00000-0  12948-4 0  9993
2 40071  98.4463 199.5824 0007464 222.7683 137.2953 14.81328255300447
Epoch (UTC): 28 January 2020 21:14:06
Eccentricity: 0.0007464
inclination: 98.4463°
perigee height: 620 km
apogee height: 630 km
right ascension of ascending node: 199.5824°
argument of perigee: 222.7683°
revolutions per day: 14.81328255
mean anomaly at epoch: 137.2953°
orbit number at epoch: 30044

The dashed part of the orbit path shows where the satellite is in the earth's shadow,  

DLR